This demonstration page uses our WeatherBlox Daily Observations layout. Learn more.

Left ArrowRight Arrow

41.86663, -103.66717

Hourly Observations for January 10, 2021

Temp ( °F °C ) Dew Point ( °F °C ) Humidity (%) Winds ( mph kmh ) Pressure ( in mb ) Visibility ( mi km ) Precip ( " mm )
12:01 am 00:01 Cloudy 30 -1.1 26 -3.3 85 85 ESE 5 7 30.46 1032 10 16 0.00 0.00
12:53 am 00:53 Cloudy 30 -1.1 26 -3.3 85 85 SE 3 6 30.40 1029 8 13 0.00 0.00
1:02 am 01:02 Cloudy 30 -1 27 -3 86 86 SSE 3 6 30.46 1031 8 13 0.00 0.00
1:35 am 01:35 Cloudy with Light Wintry Mix 30 -1.1 27 -2.8 88 88 SSE 3 6 30.46 1032 9 14 0.00 0.00
1:53 am 01:53 Cloudy with Light Wintry Mix 30 -1.1 27 -2.8 88 88 SSE 3 6 30.40 1030 7 11 0.00 0.00
2:32 am 02:32 Cloudy 30 -1.1 27 -2.8 88 88 SE 3 6 30.46 1032 9 14 0.00 0.00
2:38 am 02:38 Cloudy 30 -1.1 27 -2.8 88 88 ESE 3 6 30.46 1032 9 14 0.00 0.00
2:49 am 02:49 Cloudy 30 -1 27 -3 86 86 Calm 30.46 1031 9 14 0.00 0.00
2:53 am 02:53 Cloudy 30 -1.1 27 -2.8 88 88 E 3 6 30.40 1029 9 14 0.00 0.00
3:53 am 03:53 Cloudy 30 -1.1 27 -2.8 88 88 ENE 3 6 30.39 1029 10 16 0.00 0.00
4:40 am 04:40 Cloudy 30 -1.1 27 -2.8 88 88 E 3 6 30.44 1031 10 16 0.00 0.00
4:53 am 04:53 Cloudy 30 -1.1 26 -3.3 85 85 SE 3 6 30.39 1029 10 16 0.00 0.00
5:22 am 05:22 Cloudy 30 -1 27 -3 86 86 Calm 30.44 1031 10 16 0.00 0.00
5:36 am 05:36 Cloudy 30 -1.1 26 -3.3 85 85 E 3 6 30.44 1031 10 16 0.00 0.00
5:53 am 05:53 Cloudy 29 -1.7 26 -3.3 89 89 Calm 30.39 1029 10 16 0.00 0.00
6:02 am 06:02 Cloudy 30 -1.1 26 -3.3 85 85 Calm 30.44 1031 10 16 0.00 0.00
6:53 am 06:53 Cloudy 29 -1.7 26 -3.3 89 89 Calm 30.40 1029 10 16 0.00 0.00
7:02 am 07:02 Cloudy 29 -1.7 26 -3.3 89 89 SE 3 6 30.45 1031 9 14 0.00 0.00
7:53 am 07:53 Cloudy with Mist and Fog 29 -1.7 27 -2.8 92 92 ESE 3 6 30.40 1030 4 6 0.00 0.00
8:30 am 08:30 Cloudy with Mist and Fog 30 -1.1 27 -2.8 88 88 SSE 3 6 30.45 1031 6 10 0.00 0.00
8:53 am 08:53 Cloudy 30 -1.1 27 -2.8 88 88 Calm 30.40 1030 7 11 0.00 0.00
9:00 am 09:00 Cloudy 31 -0.6 27 -2.8 85 85 Calm 30.44 1031 8 13 0.00 0.00
9:19 am 09:19 Mostly Cloudy 32 0 28 -2.2 85 85 Calm 30.43 1031 8 13 0.00 0.00
9:31 am 09:31 Mostly Cloudy 33 0.6 28 -2.2 82 82 Calm 30.42 1030 8 13 0.00 0.00
9:40 am 09:40 Mostly Cloudy 34 1.1 28 -2.2 79 79 Calm 30.41 1030 10 16 0.00 0.00
9:53 am 09:53 Cloudy 33 0.6 28 -2.2 82 82 Calm 30.40 1030 10 16 0.00 0.00
10:11 am 10:11 Partly Cloudy 34 1.1 28 -2.2 79 79 Calm 30.41 1030 10 16 0.00 0.00
10:53 am 10:53 Sunny 36 2.2 25 -3.9 64 64 SW 5 7 30.37 1029 10 16 0.00 0.00
11:53 am 11:53 Sunny 39 3.9 24 -4.4 55 55 NW 8 13 30.32 1027 10 16 0.00 0.00
12:53 pm 12:53 Sunny 41 5 22 -5.6 47 47 VRB 3 6 30.27 1025 10 16 0.00 0.00
1:53 pm 13:53 Sunny 42 5.6 21 -6.1 43 43 WSW 6 9 30.24 1024 10 16 0.00 0.00
2:53 pm 14:53 Sunny 43 6.1 20 -6.7 40 40 Calm 30.24 1024 10 16 0.00 0.00
3:53 pm 15:53 Sunny 41 5 18 -7.8 39 39 W 6 9 30.24 1024 10 16 0.00 0.00
4:53 pm 16:53 Clear 36 2.2 20 -6.7 52 52 Calm 30.26 1025 10 16 0.00 0.00
5:53 pm 17:53 Clear 29 -1.7 19 -7.2 66 66 Calm 30.28 1025 10 16 0.00 0.00
6:53 pm 18:53 Clear 26 -3.3 17 -8.3 69 69 Calm 30.29 1026 10 16 0.00 0.00
7:53 pm 19:53 Clear 25 -3.9 16 -8.9 69 69 N 3 6 30.31 1026 10 16 0.00 0.00
8:53 pm 20:53 Clear 24 -4.4 14 -10 65 65 Calm 30.30 1026 10 16 0.00 0.00
9:53 pm 21:53 Clear 21 -6.1 13 -10.6 71 71 WNW 7 11 30.31 1026 10 16 0.00 0.00
10:53 pm 22:53 Clear 22 -5.6 13 -10.6 68 68 Calm 30.29 1026 10 16 0.00 0.00
11:53 pm 23:53 Clear 18 -7.8 11 -11.7 74 74 NW 8 13 30.28 1026 10 16 0.00 0.00

Powered by AerisWeather